Погода в Звонаревке

Россия / Саратовская область     51°37′18″N   46°32′01″E
темп.,
°C
ветер,
м/с
пор.,
м/с
влажн.,
%
обл.,
%
осадки,
мм/ч
давл.,
гПа
погр.,
м
27 сентября, пн
пн2701:00+11ссв4694100 1.9 999367
04:00+10ссв5893100 2.6 1001524
07:00+10с51187100 1.6 1002588
10:00+11ссв71187100 2.1 1004704
13:00+14с6967100 0.1 10071062
16:00+14с896642 0.9 10081177
19:00+11с61078100 0.0 1011633
22:00+10с6979100 0.0 1013656
28 сентября, вт
вт2801:00+9с4787100 0.3 1014351
04:00+10ссв4880100 0.4 1016535
07:00+7св61070100 0.0 1019579
10:00+7св5783100 0.1 10211034
13:00+8св6757100 0.1 10221350
16:00+8св6953100 0.1 10231596
19:00+8ссв4857100 0.0 1025785
22:00+9св5746100 0.0 1026368
29 сентября, ср
ср2901:00+5с49655 0.0 1027230
04:00+3с3772100 0.0 1028193
07:00+3с3775100 0.0 1029199
10:00+7св575498 0.0 1029711
13:00+10св564115 0.0 10291688
16:00+11св563759 0.0 10291996
19:00+8св37495 0.0 1030116
22:00+6св37571 0.0 1031130
30 сентября, чт
чт3001:00+4ссв33625 0.0 103244
04:00+3ссв23662 0.0 103231
07:00+2с22735 0.0 103329
10:00+8ссв23532 0.0 1034453
13:00+11св33395 0.0 10341559
16:00+12ссв33345 0.0 10331761
19:00+8с224517 0.0 103310
22:00+7сз225040 0.0 103411
1 октября, пт
пт101:00+7ссз125799 0.0 103415
04:00+8сз125188 0.0 103417
07:00+5ссз226619 0.0 103524
10:00+10ссз234968 0.0 1035384
13:00+12сз344871 0.0 1034848
16:00+14зсз3546100 0.0 10331463
19:00+11сз365997 0.0 1033225
22:00+11сз366849 0.0 1033181